Regional Weather Roundup
Issued by NWS Upton, NY

Current Version | Previous Version | Text Only | Print | Product List | Glossary On
Versions: 1 2 3 4 5 6 7 8 9 10 11 12 13 14 15 16 17 18 19 20 21 22 23 24 25 26 27 28 29 30 31 32 33 34 35 36 37 38 39 40 41 42 43 44 45 46 47 48
000
ASUS41 KOKX 130104
RWROKX

REGIONAL WEATHER ROUNDUP
NATIONAL WEATHER SERVICE NEW YORK NY
800 PM EST FRI FEB 12 2016

NOTE: "FAIR" INDICATES FEW OR NO CLOUDS BELOW 12,000 FEET WITH NO
SIGNIFICANT WEATHER AND/OR OBSTRUCTIONS TO VISIBILITY.

NYZ071-072-176-178-NJZ106-104-130200-
NEW YORK CITY METRO AREA


CITY           SKY/WX    TMP DP  RH WIND       PRES   REMARKS
CENTRAL PARK   CLOUDY    23   5  46 VRB7      30.00F WCI  15
LAGUARDIA APRT CLOUDY    25   5  42 W8        29.98F WCI  16
KENNEDY INTL   CLOUDY    25   5  42 W13       30.00F WCI  14
NEWARK/LIBERTY FLURRIES  23   7  50 W13       30.00F WCI  11
BRNX BOT. GARD   N/A     25   7  46 NW15      29.97F WCI  12
TETERBORO      CLOUDY    23   2  40 SW12      29.98F WCI  12
$$

NYZ177-179-078>081-130200-
LONG ISLAND NEW YORK

CITY           SKY/WX    TMP DP  RH WIND       PRES   REMARKS
FARMINGDALE    CLOUDY    25   6  44 W9        29.98F WCI  15
ISLIP          FLURRIES  23  13  65 NW7       29.97F WCI  15
SHIRLEY        CLOUDY    23  11  60 NW5       29.98F WCI  17
RIVERHEAD        N/A     25   7  46 CALM      29.95F
WESTHAMPTON    CLOUDY    21  10  62 CALM      29.99F
EAST HAMPTON   CLOUDY    22  11  62 NW3       29.99F
MONTAUK POINT    N/A     24  14  65 W6        29.99F WCI  17
$$

NYZ052-065-067-130200-
HUDSON VALLEY

CITY           SKY/WX    TMP DP  RH WIND       PRES   REMARKS
WHITE PLAINS   FLURRIES  21   5  50 W6        29.94F WCI  13
NEWBURGH       CLOUDY    19   5  53 SW9       29.95F WCI   9
MONTGOMERY     CLOUDY    20   4  50 S6        29.93F WCI  12
POUGHKEEPSIE   PTCLDY    23   8  52 SW3       29.96F
ALBANY         PTCLDY    19   3  49 S8        29.91F WCI   9
$$

NJZ001-105-106-008-010-013-015-019>022-104-130200-
NEW JERSEY

CITY           SKY/WX    TMP DP  RH WIND       PRES   REMARKS
NEWARK/LIBERTY FLURRIES  23   7  50 W13       30.00F WCI  11
TETERBORO      CLOUDY    23   2  40 SW12      29.98F WCI  12
CALDWELL       CLOUDY    22   2  42 SW5       29.98F WCI  16
MORRISTOWN     CLOUDY    21   7  53 W9        29.99F WCI  11
SOMERVILLE     CLOUDY    22   8  55 VRB5      29.98F WCI  16
SUSSEX         CLOUDY    20   5  52 SW5       29.94F WCI  13
ANDOVER          N/A     19   4  51 SW5       29.95F WCI  12
TRENTON        CLOUDY    20  12  71 SW5       30.00F WCI  13
MILLVILLE      LGT SNOW  22  18  85 W3        30.02F FOG
ATLANTIC CITY  CLOUDY    24  11  57 W7        30.02F WCI  16
WRIGHTSTOWN    FLURRIES  21  20  99 W6        29.98F WCI  13
TOMS RIVER     CLOUDY    23   7  50 W8        30.01F WCI  14
BELMAR         CLOUDY    23   5  46 W9        29.99F WCI  13
$$

PAZ047>061-062-071-130200-
EASTERN PENNSYLVANIA

CITY           SKY/WX    TMP DP  RH WIND       PRES   REMARKS
PHILADELPHIA   CLOUDY    22  16  78 SW8       30.02F WCI  12
ALLENTOWN      CLOUDY    20   8  60 W6        29.97F WCI  12
SCRANTON       CLOUDY    18   5  57 SW5       29.89F WCI  11
$$

CTZ002-004>006-009-010-012-RIZ004-006-007-MAZ004-011-015-130200-
SOUTHERN NEW ENGLAND
 IN CT

CITY           SKY/WX    TMP DP  RH WIND       PRES   REMARKS
BRADLEY INTL   CLOUDY    21   6  52 S7        29.95F WCI  12
HARTFORD       CLOUDY    23   7  50 S6        29.98F WCI  16
DANBURY        CLOUDY    20   7  57 S7        29.95F WCI  11
WTRBRY/OXFORD  FLURRIES  19   3  49 SW6       29.93F WCI  11
BRIDGEPORT     CLOUDY    24  11  57 W7        29.98F WCI  16
MERIDEN        CLOUDY    23   7  50 S5        29.97F WCI  17
NEW HAVEN      CLOUDY    24  11  57 VRB6      29.97F WCI  17
CHESTER        MOCLDY    21  14  73 CALM      29.96F
GROTON         CLOUDY    24   7  48 W8        29.98F WCI  15
WILLIMANTIC    CLOUDY    22   7  52 S8        29.98F WCI  12

 IN RI

CITY           SKY/WX    TMP DP  RH WIND       PRES   REMARKS
PROVIDENCE     CLOUDY    21   8  57 SW6       30.00F WCI  13
BLOCK ISLAND   CLOUDY    25  16  68 W8        29.96F WCI  16
WESTERLY       CLOUDY    23   8  52 N6        29.99F WCI  16

 IN MA

CITY           SKY/WX    TMP DP  RH WIND       PRES   REMARKS
BOSTON         CLOUDY    22   5  48 SW12      29.99F WCI  10
WORCESTER      CLOUDY    17   0  47 S9        29.90F WCI   6
WESTFIELD      CLOUDY    20   3  48 S7        29.95F WCI  11
PROVINCETOWN   CLOUDY    24  14  65 SW8       30.00F WCI  15
NANTUCKET      CLOUDY    26  14  60 NW5       29.98F WCI  20
$$

ANZ330-335-338-340-345-350-353-355-130200-
COASTAL MARINE OBSERVATIONS


STATION/POSITION TIME  SKY/WX   TEMP    WIND        PRES    VSBY  WAVE
                                AIR SEA DIR/SP/G                  HT/PER
                 (UTC)          (F)     (DEG/KT/KT) (MB)    (MI)  (FT/S)
NY HARB ENTRANCE 2350            27 42  270/ 12/ 16 1015.5          1/10
4S FIRE IS       NOT AVBL
20S FIRE ISLAND  2350            27 41  250/ 10/ 16 1015.9          2/ 3
GREAT SOUTH BAY  NOT AVBL
23SW MTP         0050            27 45  260/  8/ 14 1014.6          2/10
HUDSON CANYON    2350            30 48              1015.6          2/ 9
KINGS POINT      0000            24 36              1015.2
EXECUTION ROCKS  NOT AVBL
CENTRAL LI SOUND 0000            25     220/ 10/ 14   N/A           1/ 2
EASTERN LI SOUND 0000            26 41  240/ 10/ 16   N/A
ROBBINS REEF     0000            24                 1015.2
$$


>>>>>>>>>>>>>>>>>>>>>>>>>>>> KEY <<<<<<<<<<<<<<<<<<<<<<<<<<<
>                                                          <
>     SKY/WX - SKY CONDITION/PRESENT WEATHER               <
>     TMP    - TEMPERATURE IN FAHRENHEIT                   <
>     DP     - DEWPOINT IN FAHRENHEIT                      <
>     RH     - RELATIVE HUMIDITY IN PERCENT                <
>     WIND   - DIRECTION AND SPEED IN MPH                  <
>     PRES   - MEAN SEA LEVEL PRESSURE IN INCHES OF HG     <
>     WCI    - WIND CHILL INDEX                            <
>     VSB    - VISIBILITY IN MILES                         <
>     HX     - HEAT INDEX                                  <
>     TC     - TEMPERATURE IN CELSIUS                      <
>     VRB    - VARIABLE WIND DIRECTION                     <
>                                                          <
>>>>>>>>>>>>>>>>>>>>>>>>>>>> KEY <<<<<<<<<<<<<<<<<<<<<<<<<<<





USA.gov is the U.S. government's official web portal to all federal, state and local government web resources and services.